Date String (YYYY-MM-DD hh:mm:ss) UTC,Instrument flags,Ambient pressure (hPa),Sample flow (lpm),Bypass flow (lpm),Sample temperature (°C),Ambient temperature (°C),ASC tube jacket temperature (°C),LED temperature (°C),Box temperature (°C),Sample RH (%),Span deviation,Mass concentration (μg/m³),Mass concentration (μg/m³),Mass concentration (μg/m³)
DateTimeUTC,F1_M11,P_M11,Q1_M11,Q2_M11,T1_M11,T2_M11,T3_M11,T4_M11,T5_M11,U1_M11,ZSPAN_M11,X0_M11,X2_M11,X1_M11
2022-09-02 14:00:00,,0828.3,5.01,0.00,30.4,29.3,00.0,39.1,32.2,14.7,0000.0,0013.86,0005.36,0004.61
2022-09-02 14:01:00,,0828.3,5.01,0.00,30.4,29.3,00.0,39.1,32.2,14.6,0000.0,0013.16,0005.39,0004.62
2022-09-02 14:02:00,,0828.3,4.98,0.00,30.4,28.9,00.0,39.1,32.2,14.7,0000.0,0012.93,0005.42,0004.64
2022-09-02 14:03:00,,0828.3,5.01,0.00,30.4,27.4,00.0,39.1,32.1,14.6,0000.0,0013.04,0005.46,0004.66
2022-09-02 14:04:00,,0828.3,5.01,0.00,30.3,26.9,00.0,39.0,32.0,14.8,0000.0,0013.27,0005.43,0004.66
2022-09-02 14:05:00,,0828.3,4.99,0.00,30.2,27.1,00.0,39.0,31.9,15.1,0000.0,0013.09,0005.40,0004.67
2022-09-02 14:06:00,,0828.3,5.01,0.00,30.2,27.4,00.0,39.0,31.8,15.0,0000.0,0012.45,0005.44,0004.68
2022-09-02 14:07:00,,0828.3,5.00,0.00,30.1,27.7,00.0,38.9,31.8,14.7,0000.0,0012.40,0005.44,0004.67
2022-09-02 14:08:00,,0828.3,4.99,0.00,30.1,28.0,00.0,38.9,31.8,14.6,0000.0,0012.25,0005.39,0004.65
2022-09-02 14:09:00,,0828.3,5.00,0.00,30.1,28.2,00.0,38.9,31.8,13.9,0000.0,0012.18,0005.35,0004.63
2022-09-02 14:10:00,,0828.3,5.00,0.00,30.1,28.4,00.0,38.9,31.9,13.2,0000.0,0012.77,0005.35,0004.61
2022-09-02 14:11:00,,0828.3,5.00,0.00,30.1,28.6,00.0,38.9,31.9,13.4,0000.0,0012.92,0005.30,0004.59
2022-09-02 14:12:00,,0828.3,5.01,0.00,30.1,28.7,00.0,38.9,31.9,13.0,0000.0,0012.81,0005.25,0004.56
2022-09-02 14:13:00,,0828.3,4.99,0.00,30.1,28.8,00.0,38.9,31.9,12.9,0000.0,0012.41,0005.25,0004.52
2022-09-02 14:14:00,,0828.4,5.00,0.00,30.1,28.9,00.0,38.9,32.0,12.8,0000.0,0012.30,0005.21,0004.50
2022-09-02 14:15:00,,0828.5,5.00,0.00,30.2,29.0,00.0,38.9,32.0,13.0,0000.0,0012.27,0005.21,0004.48
2022-09-02 14:16:00,,0828.5,4.98,0.00,30.2,29.0,00.0,38.9,32.0,13.4,0000.0,0012.82,0005.36,0004.46
2022-09-02 14:17:00,,0828.8,5.00,0.00,30.2,29.1,00.0,38.9,32.1,13.5,0000.0,0012.29,0005.36,0004.46
2022-09-02 14:18:00,,0828.8,5.00,0.00,30.2,29.2,00.0,39.0,32.1,13.6,0000.0,0012.22,0005.35,0004.47
2022-09-02 14:19:00,,0829.0,5.00,0.00,30.3,29.2,00.0,39.0,32.1,13.6,0000.0,0012.37,0005.41,0004.51
2022-09-02 14:20:00,,0829.0,4.99,0.00,30.3,29.2,00.0,39.0,32.1,13.7,0000.0,0012.39,0005.44,0004.54
2022-09-02 14:21:00,,0829.1,4.99,0.00,30.3,29.0,00.0,39.0,32.2,13.6,0000.0,0012.11,0005.47,0004.58
2022-09-02 14:22:00,,0828.9,5.01,0.00,30.3,27.6,00.0,39.0,32.0,13.6,0000.0,0012.10,0005.52,0004.63
2022-09-02 14:23:00,,0829.0,4.99,0.00,30.2,26.8,00.0,39.0,31.9,14.5,0000.0,0012.58,0005.61,0004.69
2022-09-02 14:24:00,,0829.1,5.01,0.00,30.2,27.0,00.0,38.9,31.9,14.9,0000.0,0012.53,0005.65,0004.73
2022-09-02 14:25:00,,0828.9,5.01,0.00,30.1,27.3,00.0,38.9,31.7,14.1,0000.0,0012.72,0005.73,0004.78
2022-09-02 14:26:00,,0828.8,4.99,0.00,30.1,27.6,00.0,38.8,31.8,13.9,0000.0,0013.02,0005.75,0004.83
2022-09-02 14:27:00,,0829.2,5.01,0.00,30.0,27.9,00.0,38.8,31.8,14.2,0000.0,0011.20,0005.67,0004.89
2022-09-02 14:28:00,,0828.9,5.00,0.00,30.0,28.2,00.0,38.8,31.7,14.4,0000.0,0011.73,0005.73,0004.95
2022-09-02 14:29:00,,0828.7,5.00,0.00,30.0,28.4,00.0,38.8,31.8,14.7,0000.0,0012.21,0005.82,0005.01
2022-09-02 14:30:00,,0829.0,5.01,0.00,30.0,28.5,00.0,38.8,31.8,15.5,0000.0,0012.14,0005.84,0005.05
2022-09-02 14:31:00,,0829.2,5.01,0.00,30.1,28.7,00.0,38.8,31.9,18.1,0000.0,0011.97,0005.85,0005.09
2022-09-02 14:32:00,,0828.8,4.99,0.00,30.1,28.8,00.0,38.8,31.9,21.7,0000.0,0012.68,0005.92,0005.14
2022-09-02 14:33:00,,0828.9,4.98,0.00,30.1,28.9,00.0,38.9,32.0,21.9,0000.0,0013.06,0006.08,0005.24
2022-09-02 14:34:00,,0828.8,5.00,0.00,30.1,29.0,00.0,38.9,32.0,21.3,0000.0,0013.30,0006.18,0005.35
2022-09-02 14:35:00,,0828.8,5.00,0.00,30.2,29.0,00.0,38.9,32.0,20.0,0000.0,0013.62,0006.29,0005.45
2022-09-02 14:36:00,,0828.9,5.01,0.00,30.2,29.1,00.0,38.9,32.0,18.3,0000.0,0013.81,0006.42,0005.52
2022-09-02 14:37:00,,0829.0,4.99,0.00,30.2,29.1,00.0,38.9,32.1,17.5,0000.0,0013.36,0006.49,0005.56
2022-09-02 14:38:00,,0829.0,5.01,0.00,30.2,29.2,00.0,38.9,32.1,17.7,0000.0,0013.83,0006.51,0005.59
2022-09-02 14:39:00,,0829.1,5.00,0.00,30.3,29.3,00.0,39.0,32.2,17.1,0000.0,0013.87,0006.56,0005.59
2022-09-02 14:40:00,,0829.0,5.01,0.00,30.3,29.3,00.0,39.0,32.2,16.9,0000.0,0013.46,0006.57,0005.59
2022-09-02 14:41:00,,0829.0,4.99,0.00,30.3,28.8,00.0,39.0,32.2,16.5,0000.0,0013.65,0006.55,0005.59
2022-09-02 14:42:00,,0829.0,5.00,0.00,30.3,27.5,00.0,39.0,32.0,15.8,0000.0,0014.67,0006.58,0005.58
2022-09-02 14:43:00,,0829.1,5.00,0.00,30.2,27.1,00.0,39.0,32.0,15.7,0000.0,0014.85,0006.55,0005.57
2022-09-02 14:44:00,,0829.1,5.00,0.00,30.2,27.3,00.0,38.9,31.9,16.6,0000.0,0014.58,0006.45,0005.51
2022-09-02 14:45:00,,0829.1,5.00,0.00,30.1,27.6,00.0,38.9,31.8,17.8,0000.0,0014.34,0006.42,0005.44
2022-09-02 14:46:00,,0829.1,4.99,0.00,30.1,27.9,00.0,38.9,31.8,18.1,0000.0,0014.22,0006.34,0005.38
2022-09-02 14:47:00,,0829.1,5.00,0.00,30.1,28.2,00.0,38.9,31.9,17.3,0000.0,0013.96,0006.20,0005.33
2022-09-02 14:48:00,,0829.1,5.00,0.00,30.1,28.4,00.0,38.9,31.9,17.5,0000.0,0014.29,0006.16,0005.29
2022-09-02 14:49:00,,0829.2,5.01,0.00,30.1,28.6,00.0,38.9,31.9,17.6,0000.0,0014.89,0006.16,0005.25
2022-09-02 14:50:00,,0829.2,5.00,0.00,30.1,28.7,00.0,38.9,31.9,17.8,0000.0,0015.46,0006.08,0005.21
2022-09-02 14:51:00,,0829.2,5.00,0.00,30.1,28.8,00.0,38.9,32.0,17.9,0000.0,0016.16,0006.02,0005.19
2022-09-02 14:52:00,,0829.1,4.98,0.00,30.2,29.0,00.0,38.9,32.0,18.0,0000.0,0015.94,0006.03,0005.16
2022-09-02 14:53:00,,0829.2,5.01,0.00,30.2,29.0,00.0,38.9,32.1,17.7,0000.0,0015.88,0006.04,0005.13
2022-09-02 14:54:00,,0829.3,5.00,0.00,30.2,29.1,00.0,38.9,32.1,18.2,0000.0,0016.14,0006.01,0005.11
2022-09-02 14:55:00,,0829.3,4.99,0.00,30.2,29.2,00.0,39.0,32.1,17.0,0000.0,0016.01,0005.99,0005.09
2022-09-02 14:56:00,,0829.3,5.01,0.00,30.3,29.1,00.0,39.0,32.2,16.8,0000.0,0015.83,0005.99,0005.08
2022-09-02 14:57:00,,0829.3,4.99,0.00,30.3,28.0,00.0,39.0,32.0,17.2,0000.0,0015.69,0005.99,0005.07
2022-09-02 14:58:00,,0829.2,5.01,0.00,30.2,26.8,00.0,38.9,31.9,17.3,0000.0,0016.23,0006.04,0005.11
2022-09-02 14:59:00,,0829.2,5.00,0.00,30.2,26.9,00.0,38.9,31.9,17.5,0000.0,0016.12,0006.05,0005.13
